Regional Weather Roundup
Issued by NWS Kansas City/Pleasant Hill, MO

Home | Current Version | Previous Version | Text Only | Print | Product List | Glossary On
Versions: 1 2 3 4 5 6 7 8 9 10 11 12 13 14 15 16 17 18 19 20 21 22 23 24 25 26 27 28 29 30 31 32 33 34 35 36 37 38 39 40 41 42 43 44 45 46 47 48 49 50
000
ASUS43 KEAX 281610
RWREAX

WEATHER ROUNDUP FOR EASTERN KANSAS AND NORTHWEST MISSOURI
NATIONAL WEATHER SERVICE KANSAS CITY/PLEASANT HILL MO
1100 AM CDT FRI AUG 28 2015

KSZ040-057-103>105-MOZ028-029-037-043-281700-
...KANSAS CITY METROPOLITAN AREA...

CITY           SKY/WX    TMP DP  RH WIND       PRES   REMARKS
K.C. INTL      CLOUDY    72  63  73 S15G25    29.96F
K.C. DOWNTOWN  CLOUDY    73  65  75 S15       29.97S
LEES SUMMIT    CLOUDY    72  64  76 S8        30.01R
OLATHE - IXD   CLOUDY    69  66  90 S13       29.99R
OLATHE - OJC   LGT RAIN  68  65  90 S9        29.99R
LAWRENCE       CLOUDY    70  66  87 S14G24    29.95F

$$

MOZ001>008-011>017-020>025-030>033-038>040-044>046-053-054-281700-
...NORTHERN AND CENTRAL MISSOURI...

CITY           SKY/WX    TMP DP  RH WIND       PRES   REMARKS
ST. JOSEPH     CLOUDY    73  66  78 S13       29.94R
MOSBY          CLOUDY    72  63  73 S12       29.98F
WARRENSBURG    CLOUDY    73  63  68 S10       30.02R
WHITEMAN AFB   CLOUDY    76  63  64 S12       30.02R
CLINTON          N/A     75  64  69 S13       30.03S
SEDALIA        CLOUDY    73  61  65 S9        30.05R
WARSAW         NOT AVBL
CHILLICOTHE      N/A     72  64  76 S8        30.01S
KIRKSVILLE     CLOUDY    69  60  73 S15       30.04S

$$

MOZ041-047>049-056>058-063>065-088>090-097-281700-
...EASTERN AND SOUTHERN MISSOURI...

CITY           SKY/WX    TMP DP  RH WIND       PRES   REMARKS
ST. LOUIS INTL PTSUNNY   78  59  51 SE13G20   30.13S
SPIRIT OF STL  MOSUNNY   75  61  61 S6        30.11R
COLUMBIA       CLOUDY    68  61  78 SE9       30.07S
JEFFERSON CITY CLOUDY    73  60  63 SE10      30.06F
ROLLA          PTSUNNY   73  60  63 SE14      30.09S
OSAGE BEACH    MOSUNNY   73  61  64 S10       30.08S
SPRINGFIELD    MOSUNNY   74  61  63 S10       30.07F
BRANSON        SUNNY     73  61  64 SE12      30.11S
JOPLIN         CLOUDY    73  63  70 S8        30.05S
WEST PLAINS    MOSUNNY   73  59  61 S6        30.14S

$$

IAZ060-094-KSZ022-034>040-054-083-096-NEZ052-066-093-281700-
...KANSAS...SOUTHEAST NEBRASKA AND IOWA...

CITY           SKY/WX    TMP DP  RH WIND       PRES   REMARKS
TOPEKA         CLOUDY    72  68  87 S10       29.93R
MANHATTAN      SUNNY     81  68  64 SW16      29.89S
EMPORIA        CLOUDY    73  68  84 S15G22    29.94F
CHANUTE        RAIN      68  65  90 S13       30.02R
WICHITA        PTSUNNY   77  67  71 S18       29.94S
OMAHA          CLOUDY    71  67  87 S12       29.83S
LINCOLN        CLOUDY    75  68  78 W10       29.86R
FALLS CITY     PTSUNNY   74  67  78 S10       29.89R
LAMONI         CLOUDY    69  64  84 S12G21    29.95F
DES MOINES     CLOUDY    65  61  87 SE14G23   29.93R

$$




USA.gov is the U.S. government's official web portal to all federal, state and local government web resources and services.